THORAD DELTA 1 DEB, 8140

Orbit data source: Space-Track

THORAD DELTA 1 DEB, 8140 is space debris in SSO originally from a launch on Fri, 15 Nov 1974 UTC launched from the Air Force Western Test Range (AFWTR). Debris objects in space refer to the collection of defunct objects orbiting the Earth. Examples of debris include non-operational satellites, rocket bodies, and fragments generated from explosions, collisions, or faulty payload assembly.

Loading next visibility...
Identifier
8140, 1974-089J
Orbit
SSO
Country
Flag of USUS
Related business
Manufacturer
Unknown
Mission
Spacecraft
Bus & Motor
Unknown
Mass
Unknown
Launch date (UTC)
1974-11-15 (51 years ago)
Launch vehicle
Unknown
Launch site
Air Force Western Test Range (AFWTR)
Object type
Payload
Rocket body
Debris
Shape & HBR
Unknown shape, 0.5 m
Radar Cross Section
Medium (>0.1 m² and <1 m²)

Expand to show TLE details & history
Last TLE update: 13 hours ago

TLE from 13 hours ago
0 THORAD DELTA 1 DEB
1 08140U 74089J   25287.26233149  .00000002  00000-0  32588-3 0  9996
2 08140 102.0007 241.0751 0043268 310.0316 162.3719 12.46720939316835
Epoch: 2025-10-14T06:17Z
TLE epoch observation values (Epoch: 2025-10-14T06:17:45.440Z)
Latitude
64.68577°
Longitude
-29.85243°
Altitude
1,521.628 km
Speed
7.096 km/s
True Right ascension
05h 50m 33s
True Declination
64° 33' 56"
Sunlit
Object was in daylight at epoch
Visualization orbit readout
Latitude
Unknown
Longitude
Unknown
Altitude
Unknown
Speed
Unknown
Apparent Right ascension
Unknown
Apparent Declination
Unknown
Sunlit
N/A
Visualization observer readout
Local Sidereal Time
13:49:35
Azimuth
Unknown
Elevation
Unknown
Doppler factor
Unknown
Orbital elements
Apogee altitude
1,509.789 km
Perigee altitude
1,441.824 km
Semi-major axis
7,853.943 km
Eccentricity
0.00433
Inclination
102.0007°
RAAN
241.0751°
Arg. of periapsis
310.0316°
True anomaly
162.52128°
Mean anomaly
162.3719°
Eccentric anomaly
162.44667°
Mean motion
3.11825 °/min
Orbital period
115.45 mins
BSTAR
0.00032588
Loading maneuver chart data...
Computing Atmospheric mass density...

Documentation

Showing up to 5 results
|